Location: Balsareny
(41.8670°N, 1.8830°E)
Time: 07:04:51
(UTC+02:00)

Envisat - Visible Passes

Search period start: 20 May 2026 00:00
Search period end: 30 May 2026 00:00
Orbit: 761 x 762 km, 98.4° (Epoch: 19 May)

Date Brightness Start Highest point End Pass type
(mag) Time Alt. Az. Time Alt. Az. Time Alt. Az.
20 May 3.1 04:25:12 10° NNE 04:30:17 74° ESE 04:33:23 24° S visible
21 May 4.3 03:47:47 10° NNE 03:52:19 32° E 03:55:09 19° SSE visible
21 May 4.0 05:26:46 10° N 05:31:09 30° WNW 05:35:17 11° SW visible
22 May 5.4 03:11:30 10° ENE 03:14:09 14° E 03:16:49 10° ESE visible
22 May 3.0 04:48:31 10° N 04:53:33 68° WNW 04:57:03 20° SSW visible
23 May 3.5 04:10:46 10° NNE 04:15:44 54° E 04:18:50 22° S visible
23 May 4.6 05:50:41 10° NNW 05:54:14 19° WNW 05:57:46 10° WSW visible
24 May 4.8 03:33:39 10° NE 03:37:42 24° E 03:40:36 15° SE visible
24 May 3.6 05:12:01 10° N 05:16:45 41° WNW 05:20:44 14° SW visible
25 May 2.9 04:33:57 10° NNE 04:39:04 89° ESE 04:42:30 21° SSW visible
26 May 4.0 03:56:25 10° NNE 04:01:09 39° E 04:04:16 19° SSE visible
26 May 4.3 05:35:44 10° N 05:39:52 26° WNW 05:43:58 10° WSW visible
27 May 5.2 03:19:43 10° NE 03:23:02 17° E 03:26:02 11° SE visible
27 May 3.2 04:57:21 10° N 05:02:18 55° WNW 05:06:09 16° SW visible
28 May 3.2 04:19:28 10° NNE 04:24:31 66° ESE 04:27:55 21° S visible
29 May 4.5 03:42:10 10° NE 03:46:33 29° E 03:49:41 16° SE visible
29 May 3.9 05:20:56 10° N 05:25:28 34° WNW 05:29:48 11° SW visible
